Total_Precipitation_Accumulation
1.14 1.17 1.22 1.21 1.25 1.35 1.43 1.42 1.37 1.33 1.36 1.33 1.03 0.88 0.78 0.78 0.83 0.86 0.89 0.67 0.39 0.28 0.26 0.26 0.28 0.33 0.39 0.52 0.65 0.77 0.88 0.97 1.04 1.16 1.33 1.44 1.51 1.61
1.25 1.34 1.33 1.30 1.33 1.38 1.40 1.47 1.52 1.50 1.42 1.29 1.07 0.93 0.86 0.72 0.69 0.65 0.65 0.49 0.31 0.25 0.25 0.24 0.22 0.23 0.27 0.35 0.44 0.54 0.64 0.81 0.96 1.05 1.17 1.26 1.37 1.45
1.15 1.17 1.16 1.19 1.23 1.18 1.24 1.33 1.45 1.54 1.39 1.32 1.22 1.16 1.07 0.95 0.79 0.59 0.46 0.34 0.31 0.28 0.25 0.24 0.24 0.24 0.23 0.24 0.30 0.38 0.48 0.63 0.79 0.88 0.99 1.14 1.26 1.34
1.16 1.07 1.00 1.05 1.11 1.14 1.22 1.23 1.26 1.41 1.37 1.33 1.33 1.32 1.18 0.99 0.87 0.70 0.51 0.41 0.41 0.38 0.29 0.25 0.24 0.26 0.24 0.23 0.27 0.31 0.41 0.51 0.64 0.75 0.81 0.84 0.96 1.15
1.09 1.02 0.95 0.94 0.96 1.03 1.13 1.19 1.16 1.21 1.29 1.28 1.28 1.30 1.26 1.05 0.86 0.74 0.60 0.60 0.59 0.47 0.33 0.26 0.23 0.24 0.25 0.24 0.28 0.36 0.49 0.52 0.54 0.62 0.71 0.77 0.82 0.88
0.83 0.78 0.83 0.93 0.97 0.91 0.91 0.94 0.99 1.05 1.09 1.14 1.20 1.21 1.20 1.14 0.89 0.80 0.77 0.71 0.66 0.51 0.42 0.34 0.27 0.22 0.22 0.20 0.21 0.32 0.45 0.53 0.60 0.62 0.67 0.74 0.79 0.83
0.65 0.51 0.51 0.69 0.83 0.84 0.79 0.77 0.77 0.83 0.87 0.94 1.02 1.07 1.04 1.06 0.92 0.75 0.71 0.76 0.73 0.67 0.62 0.54 0.44 0.38 0.37 0.35 0.28 0.27 0.31 0.39 0.50 0.64 0.79 0.90 0.98 1.00
0.50 0.44 0.43 0.47 0.51 0.54 0.60 0.63 0.66 0.68 0.73 0.82 0.93 0.97 0.92 0.87 0.88 0.85 0.78 0.79 0.88 0.89 0.90 0.91 0.74 0.69 0.69 0.67 0.51 0.30 0.21 0.27 0.38 0.49 0.73 0.97 1.22 1.33
0.40 0.41 0.34 0.31 0.32 0.29 0.30 0.32 0.37 0.45 0.53 0.64 0.79 0.86 0.92 0.83 0.83 0.86 0.86 0.97 1.10 1.16 1.12 1.20 1.01 0.85 0.79 0.73 0.61 0.41 0.27 0.22 0.31 0.42 0.50 0.70 0.97 1.28
0.34 0.32 0.30 0.32 0.31 0.27 0.22 0.21 0.21 0.24 0.30 0.37 0.52 0.69 0.82 0.90 0.84 0.79 0.79 0.85 0.91 0.89 0.91 1.10 1.12 1.09 0.98 0.73 0.60 0.50 0.39 0.31 0.32 0.40 0.42 0.44 0.54 0.75
0.35 0.33 0.30 0.29 0.28 0.24 0.24 0.22 0.21 0.22 0.23 0.27 0.35 0.49 0.63 0.69 0.77 0.78 0.70 0.62 0.62 0.49 0.41 0.64 0.85 0.96 1.09 1.02 0.75 0.64 0.51 0.38 0.35 0.38 0.39 0.40 0.43 0.46
0.50 0.45 0.38 0.33 0.28 0.19 0.20 0.23 0.19 0.19 0.20 0.20 0.23 0.30 0.39 0.49 0.52 0.54 0.60 0.55 0.47 0.40 0.26 0.25 0.35 0.51 0.69 0.78 0.73 0.70 0.71 0.59 0.41 0.37 0.40 0.43 0.48 0.47
0.65 0.59 0.49 0.38 0.28 0.22 0.20 0.22 0.20 0.20 0.23 0.25 0.26 0.29 0.36 0.45 0.45 0.41 0.44 0.48 0.41 0.31 0.23 0.21 0.20 0.22 0.30 0.44 0.54 0.53 0.60 0.71 0.69 0.54 0.44 0.45 0.53 0.61
0.81 0.75 0.65 0.49 0.35 0.28 0.25 0.23 0.20 0.19 0.22 0.27 0.31 0.32 0.34 0.38 0.43 0.39 0.37 0.37 0.39 0.30 0.23 0.21 0.24 0.23 0.21 0.22 0.28 0.31 0.36 0.47 0.62 0.80 0.86 0.81 0.69 0.68
0.92 0.93 0.74 0.58 0.48 0.36 0.32 0.30 0.25 0.21 0.24 0.27 0.28 0.30 0.29 0.31 0.36 0.39 0.39 0.35 0.33 0.27 0.18 0.13 0.18 0.25 0.23 0.19 0.18 0.18 0.22 0.35 0.51 0.71 0.81 0.88 0.95 0.94
0.86 0.91 0.79 0.66 0.58 0.47 0.40 0.36 0.31 0.28 0.30 0.29 0.30 0.32 0.32 0.33 0.34 0.33 0.32 0.31 0.28 0.23 0.16 0.12 0.10 0.16 0.23 0.23 0.20 0.21 0.25 0.36 0.48 0.67 0.83 0.90 0.91 0.99
0.91 0.94 0.91 0.76 0.65 0.56 0.49 0.47 0.44 0.41 0.38 0.36 0.36 0.38 0.37 0.35 0.35 0.29 0.26 0.24 0.21 0.17 0.12 0.11 0.11 0.12 0.13 0.12 0.17 0.19 0.21 0.26 0.31 0.42 0.60 0.76 0.88 0.97
0.89 0.91 0.92 0.85 0.72 0.63 0.57 0.57 0.54 0.50 0.44 0.43 0.41 0.40 0.38 0.34 0.33 0.29 0.23 0.22 0.20 0.15 0.11 0.08 0.08 0.11 0.11 0.10 0.07 0.07 0.11 0.15 0.19 0.27 0.37 0.44 0.51 0.63
0.79 0.81 0.83 0.80 0.72 0.67 0.61 0.60 0.55 0.53 0.50 0.47 0.45 0.44 0.40 0.33 0.30 0.29 0.23 0.20 0.20 0.17 0.11 0.08 0.06 0.06 0.07 0.08 0.08 0.03 0.03 0.05 0.10 0.17 0.27 0.29 0.33 0.42
0.70 0.73 0.74 0.72 0.67 0.65 0.64 0.63 0.60 0.55 0.51 0.51 0.48 0.45 0.40 0.32 0.28 0.28 0.23 0.18 0.18 0.17 0.14 0.09 0.06 0.05 0.04 0.06 0.07 0.07 0.03 0.01 0.03 0.07 0.11 0.15 0.19 0.20
0.63 0.65 0.64 0.62 0.60 0.60 0.61 0.64 0.61 0.51 0.48 0.49 0.46 0.40 0.36 0.30 0.26 0.24 0.22 0.21 0.20 0.17 0.15 0.11 0.07 0.06 0.04 0.04 0.06 0.08 0.08 0.04 0.02 0.03 0.06 0.09 0.12 0.16
0.57 0.56 0.52 0.50 0.51 0.52 0.56 0.59 0.55 0.49 0.47 0.44 0.42 0.35 0.30 0.27 0.23 0.22 0.19 0.18 0.17 0.16 0.15 0.14 0.10 0.06 0.04 0.04 0.03 0.04 0.07 0.08 0.07 0.04 0.03 0.05 0.08 0.08
0.47 0.43 0.38 0.39 0.40 0.41 0.42 0.45 0.46 0.45 0.41 0.38 0.37 0.32 0.26 0.25 0.23 0.23 0.21 0.17 0.17 0.17 0.16 0.17 0.13 0.08 0.05 0.04 0.04 0.05 0.06 0.08 0.11 0.14 0.12 0.06 0.03 0.02